TimeEST,TemperatureF,Dew PointF,Humidity,Sea Level PressureIn,VisibilityMPH,Wind Direction,Wind SpeedMPH,Gust SpeedMPH,PrecipitationIn,Events,Conditions,WindDirDegrees,DateUTC
12:00 AM,30.2,24.8,80,29.88,25.0,WSW,11.5,-,N/A,,Mostly Cloudy,250,2012-02-18 05:00:00
1:00 AM,30.2,24.8,80,29.88,25.0,WSW,9.2,-,N/A,,Mostly Cloudy,250,2012-02-18 06:00:00
2:00 AM,30.2,24.8,80,29.88,25.0,WSW,8.1,-,N/A,,Overcast,240,2012-02-18 07:00:00
3:00 AM,30.2,24.8,80,29.88,25.0,WSW,9.2,19.6,N/A,,Overcast,240,2012-02-18 08:00:00
4:00 AM,30.2,24.8,80,29.88,25.0,WSW,9.2,-,N/A,,Mostly Cloudy,240,2012-02-18 09:00:00
5:00 AM,30.2,24.8,80,29.90,25.0,WSW,8.1,-,N/A,,Mostly Cloudy,250,2012-02-18 10:00:00
6:00 AM,30.2,24.8,80,29.91,25.0,WSW,9.2,-,N/A,,Overcast,250,2012-02-18 11:00:00
7:00 AM,30.2,23.0,75,29.91,25.0,WSW,8.1,-,N/A,,Mostly Cloudy,240,2012-02-18 12:00:00
8:00 AM,30.2,23.0,75,29.92,30.0,WSW,8.1,-,N/A,,Partly Cloudy,250,2012-02-18 13:00:00
9:00 AM,30.2,24.8,80,29.92,30.0,WSW,11.5,-,N/A,,Mostly Cloudy,250,2012-02-18 14:00:00
10:00 AM,30.2,23.0,75,29.92,30.0,WSW,9.2,-,N/A,,Mostly Cloudy,250,2012-02-18 15:00:00
11:00 AM,30.2,24.8,80,29.91,45.0,West,8.1,-,N/A,,Mostly Cloudy,260,2012-02-18 16:00:00
12:00 PM,32.0,23.0,69,29.90,45.0,West,8.1,-,N/A,,Mostly Cloudy,260,2012-02-18 17:00:00
1:00 PM,33.8,24.8,70,29.88,45.0,WSW,6.9,-,N/A,,Light Small Hail Showers,240,2012-02-18 18:00:00
2:00 PM,33.8,19.4,56,29.88,45.0,West,10.4,17.3,N/A,,Mostly Cloudy,260,2012-02-18 19:00:00
3:00 PM,33.8,21.2,60,29.88,45.0,West,6.9,-,N/A,,Mostly Cloudy,270,2012-02-18 20:00:00
4:00 PM,33.8,19.4,56,29.89,35.0,WNW,8.1,-,N/A,,Mostly Cloudy,300,2012-02-18 21:00:00
5:00 PM,32.0,17.6,55,29.91,25.0,NW,10.4,17.3,N/A,,Mostly Cloudy,320,2012-02-18 22:00:00
6:00 PM,30.2,17.6,60,29.94,25.0,NW,8.1,-,N/A,,Partly Cloudy,320,2012-02-18 23:00:00
7:00 PM,28.4,15.8,59,29.98,25.0,NW,5.8,-,N/A,,Partly Cloudy,310,2012-02-19 00:00:00
8:00 PM,26.6,15.8,64,30.01,25.0,WNW,2.3,-,N/A,,Partly Cloudy,290,2012-02-19 01:00:00
9:00 PM,24.8,15.8,69,30.02,25.0,NNW,8.1,-,N/A,,Partly Cloudy,330,2012-02-19 02:00:00
10:00 PM,24.8,15.8,69,30.04,25.0,NW,4.6,-,N/A,,Partly Cloudy,310,2012-02-19 03:00:00
11:00 PM,23.0,14.0,68,30.06,25.0,NW,6.9,-,N/A,,Clear,310,2012-02-19 04:00:00